TimeCDT,TemperatureF,Dew PointF,Humidity,Sea Level PressureIn,VisibilityMPH,Wind Direction,Wind SpeedMPH,Gust SpeedMPH,PrecipitationIn,Events,Conditions,WindDirDegrees,DateUTC
12:03 AM,42.8,42.8,100,29.71,0.2,ESE,11.5,-,0.02,Fog-Rain,Rain,120,2013-03-10 06:03:00
12:19 AM,42.8,42.8,100,29.72,0.2,ESE,12.7,-,0.10,Fog-Rain,Rain,120,2013-03-10 06:19:00
12:55 AM,42.1,42.1,100,29.72,0.2,ESE,11.5,-,0.31,Fog-Rain,Rain,120,2013-03-10 06:55:00
1:50 AM,42.8,42.8,100,29.64,1.0,SE,18.4,25.3,0.08,Rain,Light Rain,130,2013-03-10 07:50:00
1:55 AM,43.0,43.0,100,29.66,2.0,SE,18.4,21.9,0.08,Rain,Light Rain,140,2013-03-10 07:55:00
3:01 AM,42.8,42.8,100,29.59,1.0,ESE,18.4,-,N/A,,Overcast,120,2013-03-10 08:01:00
3:13 AM,42.8,42.8,100,29.61,1.2,SSE,17.3,-,0.00,,Overcast,150,2013-03-10 08:13:00
3:16 AM,42.8,42.8,100,29.61,0.8,SSE,16.1,-,0.00,,Overcast,150,2013-03-10 08:16:00
3:35 AM,41.0,41.0,100,29.63,0.2,SSE,13.8,-,0.00,Fog,Fog,160,2013-03-10 08:35:00
3:55 AM,39.9,39.9,100,29.66,0.2,SSE,11.5,-,0.00,Fog,Fog,160,2013-03-10 08:55:00
4:55 AM,39.9,39.9,100,29.66,0.2,South,5.8,-,N/A,Fog,Fog,170,2013-03-10 09:55:00
5:25 AM,41.0,41.0,100,29.61,0.2,SSE,4.6,-,N/A,Fog,Fog,150,2013-03-10 10:25:00
5:37 AM,41.0,41.0,100,29.62,0.2,SE,4.6,-,N/A,Fog,Fog,130,2013-03-10 10:37:00
5:52 AM,41.0,41.0,100,29.64,0.2,South,5.8,-,N/A,Fog,Fog,170,2013-03-10 10:52:00
5:55 AM,41.0,41.0,100,29.68,0.2,South,8.1,-,N/A,Fog,Fog,180,2013-03-10 10:55:00
6:39 AM,42.8,42.8,100,29.67,0.2,South,6.9,-,N/A,Fog,Fog,190,2013-03-10 11:39:00
6:55 AM,42.8,42.8,100,29.67,0.2,South,9.2,-,N/A,Fog,Fog,170,2013-03-10 11:55:00
7:23 AM,42.8,42.8,100,29.66,0.2,South,10.4,-,N/A,Fog,Fog,170,2013-03-10 12:23:00
7:55 AM,42.1,42.1,100,29.66,0.2,SSE,8.1,-,N/A,Fog,Fog,160,2013-03-10 12:55:00
8:55 AM,43.0,43.0,100,29.73,0.2,South,8.1,-,0.00,Fog-Rain,Light Rain,180,2013-03-10 13:55:00
9:26 AM,46.4,46.4,100,29.70,0.2,SSW,6.9,-,0.01,Fog-Rain,Light Rain,210,2013-03-10 14:26:00
9:37 AM,48.2,48.2,100,29.69,0.5,SW,6.9,-,0.02,Fog-Rain,Light Rain,220,2013-03-10 14:37:00
9:39 AM,48.2,48.2,100,29.68,1.5,SW,6.9,-,0.02,Rain,Light Rain,220,2013-03-10 14:39:00
9:46 AM,48.2,48.2,100,29.68,2.5,SW,6.9,-,0.02,Rain,Light Rain,220,2013-03-10 14:46:00
9:55 AM,48.0,48.0,100,29.68,1.8,SW,4.6,-,0.02,,Overcast,220,2013-03-10 14:55:00
10:05 AM,48.2,48.2,100,29.67,2.5,WSW,5.8,-,0.00,Rain,Light Rain,250,2013-03-10 15:05:00
10:18 AM,46.4,46.4,100,29.68,3.0,SW,5.8,-,0.00,Rain,Light Rain,220,2013-03-10 15:18:00
10:55 AM,46.0,46.0,100,29.73,5.0,SW,11.5,-,0.02,Rain,Light Rain,220,2013-03-10 15:55:00
11:55 AM,46.0,46.0,100,29.69,10.0,West,3.5,-,0.04,,Overcast,280,2013-03-10 16:55:00
12:22 PM,44.6,-9999,N/A,29.67,1.5,Calm,Calm,-,0.02,Rain,Light Rain,0,2013-03-10 17:22:00
12:30 PM,44.6,44.6,100,29.67,0.5,Calm,Calm,-,0.03,Fog-Rain,Light Rain,0,2013-03-10 17:30:00
12:55 PM,44.1,44.1,100,29.69,0.2,Calm,Calm,-,0.07,Fog-Rain,Light Rain,0,2013-03-10 17:55:00
1:14 PM,44.6,44.6,100,29.64,0.2,Calm,Calm,-,0.02,Fog-Rain,Light Rain,0,2013-03-10 18:14:00
1:22 PM,44.6,44.6,100,29.62,0.8,Calm,Calm,-,0.03,Rain,Light Rain,0,2013-03-10 18:22:00
1:30 PM,44.6,44.6,100,29.63,0.2,ESE,3.5,-,0.03,Fog-Rain,Light Rain,110,2013-03-10 18:30:00
1:51 PM,44.6,44.6,100,29.65,0.2,South,3.5,-,0.03,Fog,Fog,170,2013-03-10 18:51:00
1:55 PM,44.1,44.1,100,29.66,0.2,Calm,Calm,-,0.03,Fog,Fog,0,2013-03-10 18:55:00
2:15 PM,44.6,44.6,100,29.62,0.2,Calm,Calm,-,0.01,Fog-Rain,Light Rain,0,2013-03-10 19:15:00
2:36 PM,44.6,44.6,100,29.62,0.2,Calm,Calm,-,0.05,Fog-Rain,Light Rain,0,2013-03-10 19:36:00
2:45 PM,44.6,-9999,N/A,29.62,0.2,Calm,Calm,-,0.07,Rain,Light Rain,0,2013-03-10 19:45:00
2:55 PM,42.1,42.1,100,29.64,0.2,NNW,5.8,-,0.07,Fog-Rain,Light Rain,340,2013-03-10 19:55:00
3:01 PM,41.0,41.0,100,29.62,1.0,NNW,5.8,-,0.01,Rain,Light Rain,340,2013-03-10 20:01:00
3:22 PM,39.2,39.2,100,29.62,3.0,NNW,5.8,-,0.01,,Overcast,340,2013-03-10 20:22:00
3:43 PM,39.2,39.2,100,29.63,1.8,NNW,4.6,-,0.02,Rain,Light Rain,340,2013-03-10 20:43:00
3:55 PM,39.0,39.0,100,29.66,2.0,North,4.6,-,0.03,Rain,Light Rain,350,2013-03-10 20:55:00
4:21 PM,39.2,39.2,100,29.63,1.2,NE,3.5,-,0.01,Rain,Light Rain,50,2013-03-10 21:21:00
4:28 PM,39.2,39.2,100,29.62,0.5,NE,4.6,-,0.02,Fog-Rain,Light Rain,40,2013-03-10 21:28:00
4:34 PM,39.2,39.2,100,29.62,0.5,NE,3.5,-,0.02,Fog-Rain,Light Rain,50,2013-03-10 21:34:00
4:48 PM,39.2,39.2,100,29.62,0.8,Variable,3.5,-,0.02,,Overcast,0,2013-03-10 21:48:00
4:53 PM,39.2,39.2,100,29.62,2.0,North,-9999.0,-,0.02,,Overcast,0,2013-03-10 21:53:00
4:55 PM,39.0,39.0,100,29.65,3.0,North,-9999.0,-,0.02,,Overcast,0,2013-03-10 21:55:00
5:13 PM,39.2,39.2,100,29.62,1.8,NNE,3.5,-,N/A,,Overcast,30,2013-03-10 22:13:00
5:30 PM,39.2,39.2,100,29.63,3.0,North,21.9,25.3,N/A,,Overcast,360,2013-03-10 22:30:00
5:37 PM,39.2,39.2,100,29.63,3.0,Calm,Calm,-,N/A,,Overcast,0,2013-03-10 22:37:00
5:44 PM,39.2,39.2,100,29.63,2.0,Calm,Calm,-,0.00,Rain,Light Rain,0,2013-03-10 22:44:00
5:52 PM,39.2,39.2,100,29.63,0.8,NW,3.5,-,0.00,Rain,Light Rain,310,2013-03-10 22:52:00
5:55 PM,39.0,39.0,100,29.65,0.5,NW,3.5,-,0.00,Fog,Fog,320,2013-03-10 22:55:00
6:05 PM,39.2,39.2,100,29.63,1.0,NW,4.6,-,0.00,Rain,Light Rain,320,2013-03-10 23:05:00
6:16 PM,39.2,39.2,100,29.62,2.0,NNE,4.6,-,0.00,,Overcast,20,2013-03-10 23:16:00
6:21 PM,39.2,39.2,100,29.62,0.8,North,4.6,-,0.00,,Overcast,360,2013-03-10 23:21:00
6:28 PM,39.2,39.2,100,29.63,0.2,NW,3.5,-,0.00,Fog,Fog,320,2013-03-10 23:28:00
6:55 PM,37.9,37.9,100,29.67,0.2,WNW,4.6,-,0.00,Fog,Fog,300,2013-03-10 23:55:00
7:22 PM,37.4,37.4,100,29.66,1.0,WNW,6.9,-,N/A,,Mist,290,2013-03-11 00:22:00
7:48 PM,37.4,37.4,100,29.66,3.0,WNW,8.1,-,N/A,,Overcast,290,2013-03-11 00:48:00
7:55 PM,37.0,37.0,100,29.69,8.0,WNW,9.2,-,N/A,,Overcast,290,2013-03-11 00:55:00
8:20 PM,35.6,35.6,100,29.68,9.0,WNW,9.2,-,N/A,,Overcast,290,2013-03-11 01:20:00
8:55 PM,36.0,36.0,100,29.71,4.0,West,6.9,-,N/A,,Overcast,270,2013-03-11 01:55:00
9:18 PM,35.6,35.6,100,29.70,2.0,West,10.4,18.4,N/A,,Overcast,280,2013-03-11 02:18:00
9:55 PM,34.0,34.0,100,29.73,2.5,West,10.4,-,N/A,,Overcast,280,2013-03-11 02:55:00
10:20 PM,33.8,33.8,100,29.71,4.0,West,9.2,-,N/A,,Overcast,280,2013-03-11 03:20:00
10:55 PM,34.0,34.0,100,29.75,6.0,West,8.1,17.3,N/A,,Overcast,270,2013-03-11 03:55:00
11:55 PM,33.8,33.8,100,29.72,6.0,West,10.4,-,N/A,,Overcast,270,2013-03-11 04:55:00
12:34 AM,33.8,33.8,100,29.73,7.0,West,12.7,18.4,N/A,,Overcast,280,2013-03-11 05:34:00
12:55 AM,32.0,32.0,100,29.76,6.0,West,12.7,20.7,N/A,,Overcast,270,2013-03-11 05:55:00